Location: Groß Eilstorf
(52.8200°N, 9.4552°E)
Time: 12:03:53
(UTC+00:00)

Cosmos 2219 Rocket - Pass Details

Date: 15 May 2026
Orbit: 826 x 846 km, 71.0° (Epoch: 5 June)

Event Time Altitude Azimuth Distance (km) Brightness Sun altitude
Rises 20:13:04 0° 329° (NNW) 3,404 7.3 -7.7°
Reaches altitude 10° 20:15:36 10° 335° (NNW) 2,469 6.0 -8.0°
Maximum altitude 20:21:06 49° 50° (NE) 1,084 2.8 -8.6°
Enters shadow 20:26:30 10° 125° (SE) 2,439 4.0 -9.1°
